MLP140 LIMC-LICA

Flight info

Callsign MLP140
Flight time 1h 25m
Altitude 37000
Route ROBAS DCT LOGDI DCT EKDIR DCT KUGIX DCT EVINO DCT ARBUM
Aircraft A320/M-SDE3FGHIRWY/LB1

Departure

Time 2026-05-08 13:40
Airport Milan Malpensa International Airport (LIMC)

Arrival

Time 2026-05-08 15:05
Airport Lamezia Terme Sant'Eufemia International Airport (LICA)
Time Latitude Longitude Altitude Speed Heading
2026-05-08 13:23 45.62417 8.72007 731 ft 0 kts 79°
2026-05-08 13:31 45.62418 8.72016 731 ft 1 kts 79°
2026-05-08 13:32 45.62422 8.72043 731 ft 12 kts 79°
2026-05-08 13:32 45.62429 8.72089 731 ft 0 kts 79°
2026-05-08 13:32 45.62417 8.72097 730 ft 2 kts 164°
2026-05-08 13:33 45.62388 8.72105 730 ft 11 kts 169°
2026-05-08 13:33 45.62273 8.72137 728 ft 19 kts 169°
2026-05-08 13:33 45.62148 8.72171 725 ft 17 kts 169°
2026-05-08 13:33 45.62042 8.72200 723 ft 14 kts 168°
2026-05-08 13:34 45.61958 8.72224 722 ft 11 kts 169°
2026-05-08 13:34 45.61834 8.72258 722 ft 25 kts 169°
2026-05-08 13:34 45.61669 8.72304 716 ft 23 kts 169°
2026-05-08 13:34 45.61523 8.72343 713 ft 20 kts 170°
2026-05-08 13:35 45.61409 8.72408 712 ft 15 kts 108°
2026-05-08 13:35 45.61395 8.72503 713 ft 5 kts 167°
2026-05-08 13:35 45.61317 8.72515 710 ft 25 kts 174°
2026-05-08 13:35 45.61139 8.72558 702 ft 25 kts 170°
2026-05-08 13:36 45.61087 8.72725 698 ft 19 kts 81°
2026-05-08 13:36 45.61109 8.72888 704 ft 14 kts 78°
2026-05-08 13:36 45.61124 8.73001 704 ft 9 kts 78°
2026-05-08 13:36 45.61200 8.73115 702 ft 27 kts 34°
2026-05-08 13:37 45.61392 8.73268 706 ft 31 kts 358°
2026-05-08 13:37 45.61590 8.73231 714 ft 25 kts 20°
2026-05-08 13:37 45.61625 8.73452 703 ft 23 kts 117°
2026-05-08 13:37 45.61587 8.73595 705 ft 0 kts 81°
2026-05-08 13:38 45.61592 8.73643 695 ft 10 kts 81°
2026-05-08 13:38 45.61608 8.73732 697 ft 7 kts 37°
2026-05-08 13:39 45.61648 8.73730 702 ft 4 kts 348°
2026-05-08 13:39 45.61712 8.73712 697 ft 31 kts 349°
2026-05-08 13:39 45.62163 8.73583 716 ft 97 kts 351°
2026-05-08 13:39 45.63009 8.73354 731 ft 148 kts 349°
2026-05-08 13:40 45.64150 8.73021 859 ft 178 kts 348°
2026-05-08 13:40 45.65359 8.72694 1491 ft 179 kts 342°
2026-05-08 13:40 45.66369 8.71626 1800 ft 198 kts 300°
2026-05-08 13:40 45.66674 8.69643 2026 ft 218 kts 262°
2026-05-08 13:41 45.66017 8.67655 2363 ft 236 kts 222°
2026-05-08 13:41 45.64526 8.66684 3047 ft 241 kts 183°
2026-05-08 13:41 45.62863 8.67003 3855 ft 244 kts 161°
2026-05-08 13:41 45.61276 8.67866 4843 ft 244 kts 155°
2026-05-08 13:42 45.59726 8.68883 5690 ft 246 kts 154°
2026-05-08 13:42 45.58170 8.69924 6426 ft 249 kts 155°
2026-05-08 13:42 45.56582 8.70957 7128 ft 252 kts 156°
2026-05-08 13:42 45.54973 8.71963 7843 ft 254 kts 156°
2026-05-08 13:43 45.53342 8.72953 8569 ft 256 kts 158°
2026-05-08 13:43 45.51686 8.73934 9272 ft 259 kts 158°
2026-05-08 13:43 45.50042 8.74901 9949 ft 263 kts 158°
2026-05-08 13:43 45.48340 8.75903 10578 ft 266 kts 158°
2026-05-08 13:44 45.46614 8.76921 11212 ft 269 kts 158°
2026-05-08 13:44 45.44878 8.77950 11843 ft 272 kts 156°
2026-05-08 13:44 45.43269 8.79413 12451 ft 277 kts 138°
2026-05-08 13:44 45.42006 8.81534 12780 ft 292 kts 121°
2026-05-08 13:45 45.41189 8.84289 12928 ft 314 kts 109°
2026-05-08 13:45 45.40470 8.87332 13064 ft 335 kts 109°
2026-05-08 13:45 45.39700 8.90567 13247 ft 352 kts 109°
2026-05-08 13:45 45.38898 8.93903 13718 ft 360 kts 109°
2026-05-08 13:46 45.38071 8.97299 14226 ft 365 kts 109°
2026-05-08 13:46 45.37231 9.00728 14765 ft 369 kts 109°
2026-05-08 13:46 45.36382 9.04186 15332 ft 371 kts 109°
2026-05-08 13:46 45.35527 9.07662 15847 ft 375 kts 109°
2026-05-08 13:47 45.34670 9.11140 16348 ft 379 kts 109°
2026-05-08 13:47 45.33787 9.14724 16894 ft 382 kts 109°
2026-05-08 13:47 45.32909 9.18292 17432 ft 385 kts 109°
2026-05-08 13:47 45.32024 9.21894 17934 ft 388 kts 109°
2026-05-08 13:48 45.31128 9.25530 18405 ft 391 kts 109°
2026-05-08 13:48 45.30236 9.29148 18863 ft 394 kts 110°
2026-05-08 13:48 45.29327 9.32829 19325 ft 396 kts 110°
2026-05-08 13:48 45.28411 9.36531 19766 ft 398 kts 110°
2026-05-08 13:49 45.27487 9.40237 20181 ft 401 kts 111°
2026-05-08 13:49 45.26547 9.43994 20615 ft 404 kts 111°
2026-05-08 13:49 45.25624 9.47674 21021 ft 407 kts 111°
2026-05-08 13:49 45.24669 9.51476 21433 ft 409 kts 111°
2026-05-08 13:50 45.23715 9.55284 21833 ft 412 kts 111°
2026-05-08 13:50 45.22749 9.59134 22229 ft 415 kts 111°
2026-05-08 13:50 45.21773 9.63016 22614 ft 418 kts 112°
2026-05-08 13:50 45.20776 9.66885 23001 ft 419 kts 115°
2026-05-08 13:51 45.19413 9.70530 23444 ft 417 kts 126°
2026-05-08 13:51 45.17628 9.73741 23817 ft 414 kts 136°
2026-05-08 13:51 45.15480 9.76440 24132 ft 412 kts 147°
2026-05-08 13:51 45.13112 9.78773 24436 ft 414 kts 148°
2026-05-08 13:52 45.10740 9.81097 24757 ft 416 kts 148°
2026-05-08 13:52 45.08353 9.83444 25084 ft 418 kts 148°
2026-05-08 13:52 45.05964 9.85797 25414 ft 419 kts 148°
2026-05-08 13:52 45.03565 9.88157 25724 ft 421 kts 148°
2026-05-08 13:53 45.01155 9.90524 26040 ft 422 kts 148°
2026-05-08 13:53 44.98746 9.92889 26346 ft 424 kts 148°
2026-05-08 13:53 44.96363 9.95225 26641 ft 426 kts 148°
2026-05-08 13:53 44.93924 9.97608 26931 ft 428 kts 149°
2026-05-08 13:54 44.91472 10.00002 27206 ft 430 kts 149°
2026-05-08 13:54 44.89008 10.02409 27494 ft 432 kts 149°
2026-05-08 13:54 44.86536 10.04822 27786 ft 433 kts 149°
2026-05-08 13:54 44.84050 10.07237 28092 ft 435 kts 149°
2026-05-08 13:55 44.81557 10.09656 28367 ft 436 kts 149°
2026-05-08 13:55 44.79051 10.12091 28640 ft 438 kts 149°
2026-05-08 13:55 44.74017 10.16979 29157 ft 441 kts 149°
2026-05-08 13:56 44.71495 10.19427 29458 ft 440 kts 149°
2026-05-08 13:56 44.68985 10.21895 29762 ft 441 kts 148°
2026-05-08 13:56 44.66487 10.24417 30036 ft 442 kts 148°
2026-05-08 13:56 44.65255 10.25679 30166 ft 442 kts 148°
2026-05-08 13:57 44.62803 10.28207 30542 ft 439 kts 148°
2026-05-08 13:57 44.60341 10.30748 30824 ft 439 kts 148°
2026-05-08 13:57 44.57877 10.33284 31077 ft 440 kts 148°
2026-05-08 13:58 44.55399 10.35822 31287 ft 441 kts 148°
2026-05-08 13:58 44.52926 10.38341 31498 ft 442 kts 148°
2026-05-08 13:58 44.50509 10.40792 31665 ft 444 kts 148°
2026-05-08 13:58 44.47997 10.43326 31831 ft 447 kts 148°
2026-05-08 13:59 44.45463 10.45876 31954 ft 450 kts 148°
2026-05-08 13:59 44.42911 10.48446 32075 ft 454 kts 148°
2026-05-08 13:59 44.40352 10.51024 32213 ft 457 kts 148°
2026-05-08 13:59 44.37769 10.53624 32334 ft 459 kts 148°
2026-05-08 14:00 44.35168 10.56240 32473 ft 461 kts 148°
2026-05-08 14:00 44.32559 10.58867 32603 ft 463 kts 148°
2026-05-08 14:00 44.29970 10.61474 32735 ft 465 kts 148°
2026-05-08 14:00 44.27341 10.64114 32868 ft 467 kts 148°
2026-05-08 14:01 44.24695 10.66767 33001 ft 469 kts 148°
2026-05-08 14:01 44.22041 10.69423 33134 ft 471 kts 148°
2026-05-08 14:01 44.19375 10.72091 33268 ft 472 kts 148°
2026-05-08 14:01 44.16711 10.74773 33404 ft 474 kts 148°
2026-05-08 14:02 44.14034 10.77480 33555 ft 475 kts 148°
2026-05-08 14:02 44.11372 10.80181 33712 ft 476 kts 148°
2026-05-08 14:02 44.08694 10.82897 33834 ft 477 kts 148°
2026-05-08 14:02 44.06000 10.85622 33970 ft 479 kts 148°
2026-05-08 14:03 44.03301 10.88346 34083 ft 481 kts 148°
2026-05-08 14:03 43.97860 10.93822 34274 ft 484 kts 148°
2026-05-08 14:03 43.95134 10.96552 34387 ft 485 kts 148°
2026-05-08 14:04 43.92389 10.99292 34513 ft 486 kts 149°
2026-05-08 14:04 43.89643 11.02029 34674 ft 486 kts 149°
2026-05-08 14:04 43.86895 11.04770 34806 ft 487 kts 149°
2026-05-08 14:04 43.84139 11.07520 34925 ft 488 kts 149°
2026-05-08 14:05 43.81373 11.10276 35046 ft 490 kts 149°
2026-05-08 14:05 43.78608 11.13031 35166 ft 491 kts 149°
2026-05-08 14:05 43.75830 11.15800 35305 ft 492 kts 149°
2026-05-08 14:05 43.73056 11.18563 35459 ft 492 kts 149°
2026-05-08 14:06 43.70276 11.21327 35627 ft 491 kts 149°
2026-05-08 14:06 43.67505 11.24078 35800 ft 491 kts 149°
2026-05-08 14:06 43.64760 11.26797 35921 ft 491 kts 150°
2026-05-08 14:06 43.61975 11.29546 36044 ft 492 kts 150°
2026-05-08 14:07 43.59187 11.32295 36206 ft 492 kts 149°
2026-05-08 14:07 43.56400 11.35047 36395 ft 491 kts 149°
2026-05-08 14:07 43.53633 11.37810 36583 ft 491 kts 148°
2026-05-08 14:07 43.50923 11.40694 36736 ft 492 kts 146°
2026-05-08 14:08 43.48270 11.43675 36916 ft 492 kts 144°
2026-05-08 14:08 43.43051 11.49704 37014 ft 494 kts 145°
2026-05-08 14:09 43.37742 11.55712 37014 ft 495 kts 146°
2026-05-08 14:09 43.32372 11.61631 37016 ft 495 kts 146°
2026-05-08 14:10 43.26987 11.67522 37015 ft 495 kts 146°
2026-05-08 14:10 43.21613 11.73425 36989 ft 494 kts 146°
2026-05-08 14:11 43.16239 11.79336 36996 ft 495 kts 146°
2026-05-08 14:11 43.10853 11.85238 37001 ft 496 kts 146°
2026-05-08 14:12 43.05459 11.91138 37003 ft 496 kts 146°
2026-05-08 14:12 43.00064 11.97024 36978 ft 496 kts 147°
2026-05-08 14:13 42.94657 12.02901 36984 ft 497 kts 147°
2026-05-08 14:13 42.89270 12.08746 36986 ft 498 kts 147°
2026-05-08 14:14 42.83833 12.14631 36985 ft 499 kts 147°
2026-05-08 14:14 42.78397 12.20521 36989 ft 499 kts 147°
2026-05-08 14:15 42.72941 12.26401 36974 ft 500 kts 147°
2026-05-08 14:15 42.67470 12.32272 36981 ft 501 kts 147°
2026-05-08 14:16 42.61993 12.38148 36977 ft 502 kts 147°
2026-05-08 14:16 42.56521 12.44020 36978 ft 502 kts 147°
2026-05-08 14:17 42.51039 12.49878 36975 ft 502 kts 147°
2026-05-08 14:17 42.45548 12.55720 37005 ft 502 kts 147°
2026-05-08 14:18 42.40986 12.60566 37014 ft 502 kts 147°
2026-05-08 14:18 42.35493 12.66403 37017 ft 502 kts 147°
2026-05-08 14:19 42.29998 12.72218 36990 ft 502 kts 147°
2026-05-08 14:19 42.24519 12.78002 36985 ft 501 kts 147°
2026-05-08 14:20 42.19015 12.83801 36984 ft 502 kts 147°
2026-05-08 14:20 42.13511 12.89597 36971 ft 502 kts 147°
2026-05-08 14:21 42.07996 12.95387 36983 ft 503 kts 147°
2026-05-08 14:21 42.02473 13.01166 36980 ft 502 kts 147°
2026-05-08 14:22 41.96959 13.06916 36984 ft 502 kts 147°
2026-05-08 14:22 41.91432 13.12664 36989 ft 502 kts 147°
2026-05-08 14:23 41.85918 13.18402 36984 ft 502 kts 147°
2026-05-08 14:23 41.80390 13.24141 36969 ft 503 kts 148°
2026-05-08 14:24 41.74900 13.29821 36980 ft 504 kts 148°
2026-05-08 14:24 41.69331 13.35571 36987 ft 504 kts 148°
2026-05-08 14:25 41.63779 13.41295 36995 ft 504 kts 148°
2026-05-08 14:25 41.58223 13.47008 36976 ft 504 kts 148°
2026-05-08 14:26 41.52655 13.52714 36972 ft 505 kts 148°
2026-05-08 14:26 41.47076 13.58429 36972 ft 505 kts 148°
2026-05-08 14:27 41.41490 13.64127 36969 ft 506 kts 148°
2026-05-08 14:27 41.35897 13.69827 36947 ft 506 kts 148°
2026-05-08 14:28 41.30310 13.75515 36946 ft 506 kts 148°
2026-05-08 14:28 41.24704 13.81204 36967 ft 507 kts 148°
2026-05-08 14:29 41.19088 13.86876 36969 ft 507 kts 148°
2026-05-08 14:29 41.13510 13.92509 36934 ft 508 kts 148°
2026-05-08 14:30 41.07889 13.98189 36940 ft 508 kts 148°
2026-05-08 14:30 41.02255 14.03855 36953 ft 508 kts 148°
2026-05-08 14:31 40.96631 14.09492 36966 ft 509 kts 148°
2026-05-08 14:31 40.90989 14.15147 36973 ft 509 kts 148°
2026-05-08 14:32 40.82573 14.23550 36961 ft 509 kts 149°
2026-05-08 14:32 40.76914 14.29179 36958 ft 510 kts 149°
2026-05-08 14:33 40.71248 14.34812 36964 ft 510 kts 149°
2026-05-08 14:33 40.65574 14.40437 36955 ft 510 kts 149°
2026-05-08 14:34 40.59891 14.46049 36947 ft 511 kts 149°
2026-05-08 14:34 40.54193 14.51670 36953 ft 511 kts 149°
2026-05-08 14:35 40.48508 14.57267 36959 ft 511 kts 149°
2026-05-08 14:35 40.42904 14.62798 36653 ft 495 kts 149°
2026-05-08 14:36 40.40159 14.65498 36074 ft 492 kts 149°
2026-05-08 14:36 40.37414 14.68185 35408 ft 493 kts 149°
2026-05-08 14:36 40.34667 14.70863 34858 ft 491 kts 149°
2026-05-08 14:36 40.31934 14.73527 34366 ft 488 kts 149°
2026-05-08 14:37 40.29252 14.76145 33897 ft 485 kts 149°
2026-05-08 14:37 40.26562 14.78771 33358 ft 481 kts 149°
2026-05-08 14:37 40.23886 14.81384 32846 ft 478 kts 149°
2026-05-08 14:37 40.21235 14.83974 32371 ft 474 kts 149°
2026-05-08 14:38 40.18597 14.86548 31895 ft 471 kts 149°
2026-05-08 14:38 40.15979 14.89097 31397 ft 467 kts 149°
2026-05-08 14:38 40.13379 14.91624 30945 ft 463 kts 149°
2026-05-08 14:38 40.10804 14.94123 30507 ft 460 kts 149°
2026-05-08 14:39 40.08242 14.96605 30054 ft 457 kts 149°
2026-05-08 14:39 40.05703 14.99061 29541 ft 454 kts 149°
2026-05-08 14:39 40.03177 15.01504 29032 ft 450 kts 149°
2026-05-08 14:39 40.00663 15.03934 28517 ft 447 kts 149°
2026-05-08 14:40 39.98176 15.06339 28038 ft 444 kts 149°
2026-05-08 14:40 39.95706 15.08726 27561 ft 441 kts 149°
2026-05-08 14:40 39.93248 15.11093 27090 ft 438 kts 150°
2026-05-08 14:40 39.90801 15.13447 26598 ft 435 kts 149°
2026-05-08 14:41 39.88385 15.15771 26199 ft 430 kts 149°
2026-05-08 14:41 39.85987 15.18073 25766 ft 426 kts 150°
2026-05-08 14:41 39.83612 15.20351 25325 ft 423 kts 150°
2026-05-08 14:41 39.81245 15.22623 24918 ft 421 kts 149°
2026-05-08 14:42 39.78897 15.24879 24495 ft 418 kts 149°
2026-05-08 14:42 39.76569 15.27111 24084 ft 415 kts 149°
2026-05-08 14:42 39.74252 15.29328 23680 ft 413 kts 150°
2026-05-08 14:42 39.71934 15.31542 23138 ft 413 kts 150°
2026-05-08 14:43 39.69685 15.33777 22688 ft 412 kts 147°
2026-05-08 14:43 39.67483 15.36145 22287 ft 409 kts 144°
2026-05-08 14:43 39.65346 15.38563 21900 ft 406 kts 143°
2026-05-08 14:43 39.63240 15.40996 21522 ft 403 kts 143°
2026-05-08 14:44 39.61157 15.43401 21136 ft 399 kts 143°
2026-05-08 14:44 39.59079 15.45771 20768 ft 396 kts 143°
2026-05-08 14:44 39.57006 15.48104 20403 ft 392 kts 144°
2026-05-08 14:44 39.54945 15.50395 20052 ft 388 kts 144°
2026-05-08 14:45 39.52897 15.52656 19697 ft 385 kts 144°
2026-05-08 14:45 39.50866 15.54895 19347 ft 382 kts 144°
2026-05-08 14:45 39.48849 15.57122 18999 ft 379 kts 144°
2026-05-08 14:45 39.46852 15.59328 18656 ft 376 kts 144°
2026-05-08 14:46 39.44900 15.61484 18329 ft 373 kts 143°
2026-05-08 14:46 39.42933 15.63655 17946 ft 370 kts 143°
2026-05-08 14:46 39.40979 15.65810 17576 ft 367 kts 143°
2026-05-08 14:46 39.39041 15.67951 17152 ft 366 kts 144°
2026-05-08 14:47 39.37112 15.70076 16778 ft 364 kts 144°
2026-05-08 14:47 39.35193 15.72190 16431 ft 361 kts 144°
2026-05-08 14:47 39.33288 15.74288 16088 ft 359 kts 144°
2026-05-08 14:47 39.31388 15.76378 15756 ft 356 kts 144°
2026-05-08 14:48 39.29508 15.78443 15439 ft 354 kts 144°
2026-05-08 14:48 39.27639 15.80494 15115 ft 352 kts 144°
2026-05-08 14:48 39.25782 15.82529 14793 ft 349 kts 144°
2026-05-08 14:48 39.23930 15.84551 14475 ft 347 kts 144°
2026-05-08 14:49 39.22117 15.86530 14177 ft 345 kts 144°
2026-05-08 14:49 39.20347 15.88613 13858 ft 345 kts 136°
2026-05-08 14:49 39.18853 15.91047 13517 ft 346 kts 129°
2026-05-08 14:49 39.17457 15.93560 13175 ft 344 kts 129°
2026-05-08 14:50 39.16065 15.96058 12827 ft 342 kts 129°
2026-05-08 14:50 39.14680 15.98538 12479 ft 339 kts 129°
2026-05-08 14:50 39.13300 16.01001 12057 ft 339 kts 130°
2026-05-08 14:50 39.11919 16.03458 11670 ft 338 kts 130°
2026-05-08 14:51 39.10546 16.05903 11343 ft 336 kts 130°
2026-05-08 14:51 39.09192 16.08314 11022 ft 334 kts 130°
2026-05-08 14:51 39.07834 16.10726 10720 ft 331 kts 130°
2026-05-08 14:51 39.06488 16.13119 10418 ft 329 kts 130°
2026-05-08 14:52 39.05154 16.15487 10113 ft 326 kts 130°
2026-05-08 14:52 39.02540 16.20128 9680 ft 313 kts 130°
2026-05-08 14:52 39.01266 16.22400 9329 ft 311 kts 131°
2026-05-08 14:53 39.00012 16.24636 8823 ft 307 kts 131°
2026-05-08 14:53 38.98763 16.26852 8389 ft 306 kts 130°
2026-05-08 14:53 38.97535 16.29023 8101 ft 303 kts 130°
2026-05-08 14:53 38.96303 16.31194 7743 ft 301 kts 130°
2026-05-08 14:54 38.95075 16.33360 7384 ft 300 kts 130°
2026-05-08 14:54 38.93852 16.35517 7029 ft 298 kts 130°
2026-05-08 14:54 38.92622 16.37682 6620 ft 300 kts 130°
2026-05-08 14:54 38.91396 16.39840 6262 ft 298 kts 130°
2026-05-08 14:55 38.90173 16.41989 5834 ft 298 kts 130°
2026-05-08 14:55 38.88955 16.44137 5499 ft 297 kts 129°
2026-05-08 14:55 38.87745 16.46273 5184 ft 294 kts 129°
2026-05-08 14:55 38.86547 16.48382 4850 ft 291 kts 128°
2026-05-08 14:56 38.85347 16.50492 4343 ft 295 kts 128°
2026-05-08 14:56 38.84153 16.52587 4098 ft 287 kts 128°
2026-05-08 14:56 38.82989 16.54631 3992 ft 279 kts 128°
2026-05-08 14:56 38.81881 16.56581 4001 ft 265 kts 129°
2026-05-08 14:57 38.80962 16.58625 4003 ft 265 kts 109°
2026-05-08 14:57 38.80739 16.60967 4017 ft 267 kts 83°
2026-05-08 14:57 38.81283 16.63207 4008 ft 262 kts 56°
2026-05-08 14:57 38.82439 16.64920 4015 ft 257 kts 32°
2026-05-08 14:58 38.84018 16.65922 4019 ft 247 kts
2026-05-08 14:58 38.85650 16.66029 3806 ft 234 kts 341°
2026-05-08 14:58 38.87075 16.65159 3391 ft 229 kts 316°
2026-05-08 14:58 38.88017 16.63564 3102 ft 223 kts 292°
2026-05-08 14:59 38.88300 16.61616 3042 ft 224 kts 268°
2026-05-08 14:59 38.87301 16.57754 3042 ft 229 kts 255°
2026-05-08 14:59 38.87009 16.55752 3035 ft 227 kts 266°
2026-05-08 15:00 38.87049 16.53735 3040 ft 229 kts 279°
2026-05-08 15:00 38.87298 16.51730 2977 ft 224 kts 279°
2026-05-08 15:00 38.87535 16.49781 2845 ft 216 kts 280°
2026-05-08 15:00 38.87757 16.47918 2719 ft 206 kts 278°
2026-05-08 15:01 38.87964 16.46163 2622 ft 190 kts 278°
2026-05-08 15:01 38.88150 16.44583 2485 ft 170 kts 278°
2026-05-08 15:01 38.88315 16.43188 2419 ft 149 kts 278°
2026-05-08 15:01 38.88465 16.41919 2266 ft 139 kts 278°
2026-05-08 15:02 38.88609 16.40701 2026 ft 137 kts 279°
2026-05-08 15:02 38.88748 16.39531 1816 ft 131 kts 279°
2026-05-08 15:02 38.88889 16.38419 1610 ft 129 kts 279°
2026-05-08 15:02 38.89051 16.37235 1463 ft 135 kts 279°
2026-05-08 15:03 38.89203 16.36026 1359 ft 139 kts 278°
2026-05-08 15:03 38.89322 16.34778 1306 ft 141 kts 277°
2026-05-08 15:03 38.89445 16.33525 1148 ft 141 kts 277°
2026-05-08 15:03 38.89586 16.32288 1033 ft 140 kts 276°
2026-05-08 15:04 38.89732 16.31086 867 ft 134 kts 277°
2026-05-08 15:04 38.89869 16.29890 681 ft 138 kts 279°
2026-05-08 15:04 38.90014 16.28661 482 ft 139 kts 277°
2026-05-08 15:04 38.90106 16.27862 364 ft 136 kts 277°
2026-05-08 15:05 38.90247 16.26658 201 ft 137 kts 278°
2026-05-08 15:05 38.90393 16.25492 39 ft 123 kts 279°
2026-05-08 15:05 38.90496 16.24597 30 ft 80 kts 278°
2026-05-08 15:05 38.90557 16.24077 28 ft 35 kts 278°
2026-05-08 15:06 38.90583 16.23856 30 ft 23 kts 279°
2026-05-08 15:06 38.90629 16.23670 33 ft 21 kts 298°
2026-05-08 15:06 38.90710 16.23523 34 ft 21 kts 309°
2026-05-08 15:06 38.90834 16.23523 32 ft 21 kts 61°
2026-05-08 15:07 38.90826 16.23693 32 ft 18 kts 98°
2026-05-08 15:07 38.90866 16.23803 31 ft 13 kts 37°
2026-05-08 15:07 38.90875 16.23903 32 ft 11 kts 99°
2026-05-08 15:07 38.90876 16.23978 32 ft 5 kts 35°
2026-05-08 15:08 38.90911 16.23986 32 ft 5 kts
2026-05-08 15:08 38.90937 16.23991 32 ft 3 kts
2026-05-08 15:08 38.90947 16.23993 32 ft 0 kts
2026-05-08 15:08 38.90950 16.23993 32 ft 0 kts